GW0571 Weather Reports


time (UTC)temp
C
wind
direction
speed
KPH
gust
KPH
rain 1hr
cm
rain 24hr
cm
rain mn
cm
humidity
%
barometer
mb
20260904020015 21 233 0.0 0.0 0.00 0.38 0.38 96
20260904015510 21 230 0.0 0.0 0.00 0.38 0.38 96
20260904015009 21 180 0.0 1.6 0.00 0.38 0.38 96
20260904014503 21 119 0.0 0.0 0.00 0.38 0.38 96
20260904013959 21 119 0.0 0.0 0.00 0.38 0.38 96
20260904013455 20 126 0.0 1.6 0.00 0.38 0.38 96
20260904012951 20 46 0.0 1.6 0.00 0.38 0.38 96
20260904012450 20 13 0.0 1.6 0.00 0.38 0.38 96
20260904011945 21 142 0.0 0.0 0.00 0.38 0.38 96
20260904011440 21 142 0.0 0.0 0.00 0.38 0.38 96
20260904010935 21 142 0.0 1.6 0.00 0.38 0.38 96
20260904010431 21 343 0.0 0.0 0.00 0.38 0.38 96
20260904005925 21 343 0.0 0.0 0.00 0.38 0.38 96
20260904005416 21 13 0.0 1.6 0.00 0.38 0.38 96
20260904004915 21 142 0.0 0.0 0.00 0.38 0.38 96
20260904004413 21 142 0.0 0.0 0.00 0.38 0.38 96
20260904003912 21 140 1.6 3.2 0.00 0.38 0.38 96
20260904003403 21 137 0.0 1.6 0.00 0.38 0.38 96
20260904002857 21 130 0.0 1.6 0.00 0.38 0.38 96
20260904002354 21 121 1.6 1.6 0.00 0.38 0.38 96
20260904001853 21 117 0.0 1.6 0.00 0.38 0.38 96
20260904001349 21 235 0.0 0.0 0.00 0.38 0.38 96
20260904000843 21 235 0.0 0.0 0.00 0.38 0.38 96
20260904000343 21 229 0.0 3.2 0.00 0.38 0.38 96
20260903235842 22 296 0.0 1.6 0.00 0.38 0.38 96
20260903235339 22 322 0.0 1.6 0.00 0.38 0.38 96
20260903234838 22 142 0.0 0.0 0.00 0.38 0.38 96
20260903234334 22 142 0.0 0.0 0.00 0.38 0.38 96
20260903233831 22 142 0.0 0.0 0.00 0.38 0.38 96
20260903233326 22 142 0.0 1.6 0.00 0.38 0.38 96
20260903232825 22 129 0.0 0.0 0.00 0.38 0.38 95
20260903232321 22 129 0.0 0.0 0.00 0.38 0.38 94
20260903231820 23 142 0.0 0.0 0.00 0.38 0.38 94
20260903231316 23 142 0.0 1.6 0.00 0.38 0.38 93
20260903230811 23 148 1.6 3.2 0.00 0.38 0.38 93
20260903230306 23 154 0.0 0.0 0.00 0.38 0.38 93
20260903225802 23 217 0.0 0.0 0.00 0.38 0.38 92
20260903225258 24 217 0.0 0.0 0.00 0.38 0.38 92
20260903224754 24 217 0.0 0.0 0.00 0.38 0.38 90
20260903224250 25 217 0.0 0.0 0.00 0.38 0.38 89
20260903223745 25 217 0.0 1.6 0.00 0.38 0.38 89
20260903223243 25 242 0.0 1.6 0.00 0.38 0.38 89
20260903222739 25 339 0.0 1.6 0.00 0.38 0.38 88
20260903222238 25 154 0.0 3.2 0.00 0.38 0.38 86
20260903221733 25 228 0.0 0.0 0.00 0.38 0.38 85
20260903221232 25 228 0.0 0.0 0.00 0.38 0.38 86
20260903220730 26 228 0.0 0.0 0.00 0.38 0.38 83
20260903220225 26 228 0.0 0.0 0.00 0.38 0.38 82
20260903215724 26 244 3.2 3.2 0.00 0.38 0.38 79
20260903215220 26 229 0.0 1.6 0.00 0.38 0.38 81
20260903214718 26 209 0.0 0.0 0.00 0.38 0.38 80
20260903214214 27 288 0.0 1.6 0.00 0.38 0.38 78
20260903213708 26 293 0.0 4.8 0.00 0.38 0.38 78
20260903213204 26 263 4.8 9.7 0.00 0.38 0.38 77
20260903212700 26 282 1.6 6.4 0.00 0.38 0.38 78
20260903212156 26 310 1.6 11.3 0.00 0.38 0.38 79
20260903211649 26 256 3.2 12.9 0.00 0.38 0.38 75
20260903211146 27 252 9.7 11.3 0.00 0.38 0.38 74
20260903210642 27 250 4.8 8.0 0.00 0.38 0.38 74
20260903210137 27 271 3.2 6.4 0.00 0.38 0.38 75
20260903205631 27 242 4.8 11.3 0.00 0.38 0.38 72
20260903205130 27 103 0.0 4.8 0.00 0.38 0.38 76
20260903204626 26 256 4.8 4.8 0.00 0.38 0.38 80
20260903204122 26 309 0.0 1.6 0.00 0.38 0.38 77
20260903203618 26 230 0.0 3.2 0.00 0.38 0.38 80
20260903203112 25 258 4.8 4.8 0.00 0.38 0.38 79
20260903202607 25 242 0.0 1.6 0.00 0.38 0.38 80
20260903202102 25 330 1.6 8.0 0.00 0.38 0.38 80
20260903201551 25 238 4.8 11.3 0.00 0.38 0.38 78
20260903201050 25 288 0.0 4.8 0.00 0.38 0.38 81
20260903200546 25 247 6.4 12.9 0.00 0.38 0.38 79
20260903200041 25 239 9.7 12.9 0.00 0.38 0.38 79
20260903195537 25 263 4.8 8.0 0.00 0.38 0.38 80 1014.2
20260903195032 25 291 1.6 6.4 0.00 0.38 0.38 79 1014.2
20260903194527 25 267 3.2 8.0 0.00 0.38 0.38 79 1014.2
20260903194022 26 326 0.0 9.7 0.00 0.38 0.38 78 1014.2
20260903193519 26 243 4.8 6.4 0.00 0.38 0.38 78 1014.2
20260903193014 26 248 0.0 6.4 0.00 0.38 0.38 78 1014.2
20260903192511 26 264 3.2 4.8 0.00 0.38 0.38 80 1014.2
20260903192010 26 250 6.4 8.0 0.00 0.38 0.38 78 1014.2
20260903191507 26 225 4.8 9.7 0.00 0.38 0.38 77 1014.2
20260903191001 26 235 3.2 4.8 0.00 0.38 0.38 81 1014.2
20260903190500 25 245 4.8 6.4 0.00 0.38 0.38 78 1014.2
20260903185954 25 238 6.4 11.3 0.00 0.38 0.38 79 1014.2
20260903185451 25 247 4.8 9.7 0.00 0.38 0.38 81 1014.6
20260903184950 25 255 12.9 12.9 0.00 0.38 0.38 80 1014.6
20260903184447 25 101 0.0 6.4 0.00 0.38 0.38 80 1014.6
20260903183942 25 239 3.2 11.3 0.00 0.38 0.38 79 1014.6
20260903183436 25 241 6.4 9.7 0.00 0.38 0.38 78 1014.6
20260903182936 26 144 3.2 14.5 0.00 0.38 0.38 77 1014.6
20260903182434 27 223 4.8 8.0 0.00 0.38 0.38 75 1014.6
20260903181930 26 250 3.2 9.7 0.00 0.38 0.38 78 1014.6
20260903181425 26 240 0.0 6.4 0.00 0.38 0.38 76 1014.6
20260903180924 25 207 1.6 4.8 0.00 0.38 0.38 80 1014.6
20260903180419 25 248 3.2 8.0 0.00 0.38 0.38 81 1014.4
20260903175919 25 280 1.6 8.0 0.00 0.38 0.38 83 1014.4
20260903175413 25 256 6.4 11.3 0.00 0.38 0.38 81 1014.4
20260903174907 25 308 3.2 11.3 0.00 0.38 0.38 80 1014.4
20260903174402 25 255 4.8 6.4 0.00 0.38 0.38 80 1014.3
20260903173857 25 251 6.4 11.3 0.00 0.38 0.38 80 1014.6
20260903173352 25 278 1.6 6.4 0.00 0.38 0.38 80 1014.1
20260903172848 24 257 4.8 6.4 0.00 0.38 0.38 82 1014.6
20260903172348 24 246 1.6 4.8 0.00 0.38 0.38 82 1014.4
20260903171843 24 242 4.8 9.7 0.00 0.38 0.38 81 1014.6
20260903171338 24 245 11.3 14.5 0.00 0.38 0.38 80 1014.4
20260903170838 25 216 4.8 6.4 0.00 0.38 0.38 81 1014.4
20260903170333 25 245 6.4 8.0 0.00 0.38 0.38 80 1014.4
20260903165831 25 249 3.2 8.0 0.00 0.38 0.38 82 1014.6
20260903165331 25 256 12.9 14.5 0.00 0.38 0.38 78 1014.6
20260903164826 25 238 3.2 9.7 0.00 0.38 0.38 79 1014.6
20260903164321 25 294 1.6 8.0 0.00 0.38 0.38 80 1014.6
20260903163820 25 292 4.8 8.0 0.00 0.38 0.38 82 1014.7
20260903163317 25 284 0.0 4.8 0.00 0.38 0.38 85 1014.3
20260903162813 25 239 4.8 12.9 0.00 0.38 0.38 82 1014.9
20260903162309 24 202 0.0 9.7 0.00 0.38 0.38 84 1014.7
20260903161804 24 269 1.6 11.3 0.00 0.38 0.38 85 1014.8
20260903161300 23 175 4.8 14.5 0.00 0.38 0.38 85 1015.0
20260903160755 23 243 6.4 9.7 0.00 0.38 0.38 84 1014.8
20260903160254 23 233 8.0 11.3 0.00 0.38 0.38 86 1015.1
20260903155753 23 242 6.4 16.1 0.00 0.38 0.38 86 1015.2
20260903155248 23 259 4.8 9.7 0.00 0.38 0.38 87 1015.2
20260903154744 22 201 1.6 11.3 0.00 0.38 0.38 88 1015.3
20260903154239 22 203 1.6 9.7 0.00 0.38 0.38 90 1015.5
20260903153735 22 269 0.0 6.4 0.00 0.38 0.38 91 1015.4
20260903153231 21 257 1.6 4.8 0.00 0.38 0.38 92 1015.6
20260903152727 21 236 3.2 4.8 0.00 0.38 0.38 92 1015.5
20260903152223 21 202 1.6 4.8 0.00 0.38 0.38 92 1015.7
20260903151722 21 207 4.8 6.4 0.00 0.38 0.38 93 1015.6
20260903151218 21 215 3.2 4.8 0.00 0.38 0.38 93 1015.6
20260903150713 21 235 4.8 8.0 0.00 0.38 0.38 92 1015.4
20260903150207 21 165 4.8 9.7 0.00 0.38 0.38 92 1015.5
20260903145702 21 253 3.2 11.3 0.00 0.38 0.38 92 1015.4
20260903145157 21 143 6.4 11.3 0.00 0.38 0.38 92 1015.4
20260903144656 21 244 3.2 14.5 0.00 0.38 0.38 93 1015.2
20260903144152 21 247 8.0 12.9 0.00 0.38 0.38 92 1015.2
20260903143648 21 203 3.2 6.4 0.00 0.38 0.38 94 1015.3
20260903143143 20 247 9.7 11.3 0.00 0.38 0.38 95 1015.4
20260903142638 20 125 4.8 12.9 0.00 0.38 0.38 96 1015.4
20260903142135 20 225 4.8 9.7 0.00 0.38 0.38 96 1015.4
20260903141630 20 213 3.2 9.7 0.00 0.38 0.38 96 1015.3
20260903141125 20 162 3.2 8.0 0.00 0.38 0.38 96 1015.3
20260903140622 20 140 3.2 8.0 0.00 0.38 0.38 96 1015.4
20260903140117 20 149 3.2 6.4 0.00 0.38 0.38 96 1015.4
20260903135613 20 212 0.0 8.0 0.00 0.38 0.38 96 1015.3
20260903135112 20 245 3.2 4.8 0.00 0.38 0.38 96 1015.2
20260903134611 20 186 1.6 9.7 0.00 0.38 0.38 96 1015.3
20260903134107 20 226 4.8 8.0 0.00 0.38 0.38 96 1015.1
20260903133605 20 222 4.8 11.3 0.00 0.38 0.38 96 1015.0
20260903133101 20 260 4.8 8.0 0.00 0.38 0.38 96 1015.0
20260903132556 20 254 3.2 9.7 0.00 0.38 0.38 96 1014.9
20260903132050 20 246 6.4 9.7 0.00 0.38 0.38 96 1014.9
20260903131549 20 245 8.0 9.7 0.00 0.38 0.38 96 1015.2
20260903131044 20 226 4.8 8.0 0.00 0.38 0.38 96 1015.2
20260903130544 20 225 3.2 9.7 0.00 0.38 0.38 96 1015.3
20260903130039 20 252 6.4 9.7 0.00 0.38 0.38 96 1015.3
20260903125537 19 145 4.8 6.4 0.00 0.38 0.38 96 1015.3
20260903125033 19 253 3.2 4.8 0.00 0.38 0.38 96 1015.3
20260903124532 19 253 4.8 9.7 0.00 0.38 0.38 96 1015.3
20260903124027 19 253 4.8 6.4 0.00 0.38 0.38 96 1015.4
20260903123521 19 217 3.2 6.4 0.00 0.38 0.38 96 1015.4
20260903123020 19 174 1.6 4.8 0.00 0.38 0.38 96 1015.3
20260903122520 19 259 3.2 4.8 0.00 0.38 0.38 96 1015.3
20260903122019 18 217 0.0 4.8 0.00 0.38 0.38 96 1015.1
20260903121514 18 226 1.6 3.2 0.00 0.38 0.38 96 1015.1
20260903121010 18 215 0.0 4.8 0.00 0.38 0.38 96 1015.0
20260903120508 18 224 0.0 3.2 0.00 0.38 0.38 96 1014.9
20260903120003 18 240 0.0 3.2 0.00 0.38 0.38 96 1015.0
20260903115501 18 180 0.0 3.2 0.00 0.38 0.38 96 1015.0
20260903114956 18 89 0.0 3.2 0.00 0.38 0.38 96 1014.9
20260903114451 18 338 0.0 3.2 0.00 0.38 0.38 96 1014.9
20260903113947 17 141 0.0 1.6 0.00 0.38 0.38 96 1014.9
20260903113442 17 246 0.0 3.2 0.05 0.38 0.38 96 1014.9
20260903112938 17 236 0.0 3.2 0.05 0.38 0.38 96 1014.9
20260903112433 17 245 0.0 4.8 0.05 0.38 0.38 96 1014.7
20260903111932 17 240 0.0 3.2 0.00 0.38 0.38 96 1014.4
20260903111427 17 219 0.0 3.2 0.00 0.38 0.38 96 1014.6
20260903110924 17 206 0.0 3.2 0.00 0.38 0.38 96 1014.7
20260903110419 17 151 0.0 1.6 0.00 0.38 0.38 96 1014.6
20260903105914 17 177 0.0 1.6 0.00 0.38 0.38 96 1014.2
20260903105409 17 260 0.0 0.0 0.00 0.38 0.38 96 1014.4
20260903104908 17 233 0.0 1.6 0.00 0.38 0.38 96 1014.4
20260903104403 17 222 0.0 3.2 0.00 0.38 0.38 96 1014.8
20260903103900 17 209 3.2 4.8 0.00 0.38 0.38 96 1014.6
20260903103355 17 225 0.0 3.2 0.00 0.38 0.38 96 1014.6
20260903102850 17 129 0.0 1.6 0.00 0.38 0.38 96 1014.7
20260903102345 17 212 0.0 1.6 0.00 0.38 0.38 96 1014.6
20260903101844 17 316 0.0 1.6 0.00 0.38 0.38 96 1014.7
20260903101334 17 50 0.0 1.6 0.00 0.38 0.38 96 1014.6
20260903100830 17 89 0.0 1.6 0.00 0.38 0.38 96 1014.6
20260903100330 17 240 0.0 1.6 0.00 0.38 0.38 96 1014.9
20260903095826 17 159 0.0 3.2 0.00 0.38 0.38 96 1014.8
20260903095321 17 265 0.0 1.6 0.00 0.38 0.38 96 1014.9
20260903094816 17 230 0.0 3.2 0.00 0.38 0.38 96 1014.8
20260903094311 17 226 0.0 3.2 0.00 0.38 0.38 96 1014.7
20260903093807 17 233 1.6 3.2 0.00 0.38 0.38 96 1014.9
20260903093301 17 130 1.6 4.8 0.00 0.38 0.38 96 1014.8
20260903092756 17 166 0.0 4.8 0.00 0.38 0.38 96 1014.7
20260903092251 17 267 1.6 3.2 0.00 0.38 0.38 96 1014.9
20260903091750 17 269 0.0 3.2 0.00 0.38 0.38 96 1015.1
20260903091244 17 203 1.6 3.2 0.05 0.38 0.38 96 1015.1
20260903090740 17 235 0.0 1.6 0.05 0.38 0.38 96 1015.0
20260903090239 17 325 0.0 3.2 0.00 0.36 0.36 96 1015.0
20260903085737 17 335 0.0 3.2 0.00 0.36 0.36 96 1014.9
20260903085233 17 117 1.6 6.4 0.00 0.36 0.36 96 1014.8
20260903084730 17 237 0.0 3.2 0.00 0.36 0.36 96 1014.6
20260903084226 17 202 0.0 1.6 0.00 0.36 0.36 96 1014.6
20260903083721 17 186 0.0 1.6 0.00 0.36 0.36 96 1014.4
20260903083221 17 322 0.0 1.6 0.00 0.36 0.36 96 1014.3
20260903082714 17 150 0.0 3.2 0.00 0.36 0.36 96 1014.8
20260903082211 17 142 0.0 1.6 0.00 0.36 0.36 96 1014.7
20260903081710 17 129 0.0 1.6 0.00 0.36 0.36 96 1014.6
20260903081206 17 315 0.0 3.2 0.00 0.36 0.36 96 1014.8
20260903080703 17 214 0.0 4.8 0.00 0.36 0.36 96 1015.0
20260903080200 17 227 1.6 3.2 0.13 0.36 0.36 96 1014.6
20260903075659 17 217 0.0 1.6 0.13 0.36 0.36 96 1014.6
20260903075154 17 142 0.0 1.6 0.00 0.33 0.33 96 1014.7
20260903074653 17 326 0.0 1.6 0.00 0.33 0.33 96 1014.9
20260903074149 17 230 0.0 1.6 0.00 0.33 0.33 96 1014.7
20260903073644 17 194 0.0 1.6 0.00 0.33 0.33 96 1014.8
20260903073139 17 193 0.0 1.6 0.00 0.33 0.33 96 1015.2
20260903072634 17 321 1.6 1.6 0.00 0.33 0.33 96 1015.0
20260903072131 17 230 0.0 0.0 0.00 0.33 0.33 96 1014.7
20260903071627 17 186 0.0 1.6 0.00 0.33 0.33 96 1014.6
20260903071123 17 246 3.2 3.2 0.00 0.33 0.33 96 1014.9
20260903070622 17 329 0.0 1.6 0.00 0.33 0.33 96 1014.9
20260903070118 17 343 0.0 3.2 0.00 0.33 0.33 96 1014.8
20260903065618 17 37 0.0 3.2 0.00 0.33 0.33 96 1014.9
20260903065118 17 209 0.0 6.4 0.00 0.33 0.33 96 1015.1
20260903064612 17 154 4.8 6.4 0.00 0.33 0.33 96 1015.2
20260903064107 17 160 1.6 9.7 0.00 0.33 0.33 96 1014.4
20260903063603 17 219 1.6 3.2 0.00 0.33 0.33 96 1014.9
20260903063058 17 219 1.6 3.2 0.00 0.33 0.33 96 1014.9
20260903062553 17 315 0.0 0.0 0.00 0.33 0.33 96 1015.3
20260903062049 17 315 0.0 3.2 0.00 0.33 0.33 96 1015.2
20260903061543 17 148 0.0 3.2 0.00 0.33 0.33 96 1015.2
20260903061038 17 212 0.0 1.6 0.00 0.33 0.33 96 1015.2
20260903060537 17 230 0.0 1.6 0.00 0.33 0.33 96 1015.6
20260903060033 17 230 0.0 0.0 0.00 0.33 0.33 96 1015.7
20260903055530 17 212 0.0 1.6 0.00 0.33 0.33 96 1015.8
20260903055029 17 309 0.0 0.0 0.00 0.33 0.33 96 1015.5
20260903054524 17 17 0.0 1.6 0.00 0.33 0.33 96 1015.5
20260903054020 17 292 1.6 8.0 0.00 0.33 0.33 96 1015.3
20260903053520 17 142 0.0 4.8 0.00 0.33 0.33 96 1015.1
20260903053017 17 240 0.0 8.0 0.00 0.33 0.33 96
20260903052512 18 234 3.2 6.4 0.00 0.33 0.33 96
20260903052008 18 116 0.0 4.8 0.00 0.33 0.33 96
20260903051502 18 190 4.8 11.3 0.00 0.33 0.33 96
20260903050958 18 249 1.6 11.3 0.00 0.33 0.33 96
20260903050456 18 150 3.2 6.4 0.05 0.33 0.33 96
20260903045951 18 243 1.6 9.7 0.05 0.33 0.33 96
20260903045447 18 220 0.0 8.0 0.05 0.33 0.33 96
20260903044943 18 304 3.2 11.3 0.18 0.33 0.33 96
20260903044439 18 212 4.8 11.3 0.36 0.30 0.30 96
20260903043935 18 247 4.8 9.7 0.36 0.30 0.30 96
20260903043430 18 89 0.0 8.0 0.36 0.28 0.28 96
20260903042928 18 205 4.8 9.7 0.43 0.23 0.23 96
20260903042424 18 229 1.6 12.9 0.61 0.20 0.20 96
20260903041920 18 265 0.0 8.0 0.61 0.15 0.15 96
20260903041416 18 174 4.8 8.0 0.48 0.10 0.10 96
20260903040912 18 169 3.2 8.0 0.30 0.05 0.05 96
20260903040411 18 272 1.6 8.0 0.43 0.00 0.00 96
20260903035907 18 175 3.2 9.7 0.66 2.31 2.31 96
20260903035402 18 290 3.2 12.9 0.43 2.26 2.26 96
20260903034857 18 288 6.4 22.5 0.18 2.21 2.21 96
20260903034352 18 265 6.4 16.1 0.05 2.18 2.18 96
20260903033847 18 258 1.6 4.8 0.13 2.18 2.18 96
20260903033342 18 208 3.2 4.8 0.23 2.16 2.16 96
20260903032842 19 168 4.8 8.0 0.30 2.16 2.16 96
20260903032338 19 214 1.6 4.8 0.36 2.11 2.11 96
20260903031828 19 224 4.8 8.0 0.43 2.11 2.11 96
20260903031327 19 225 3.2 11.3 0.36 2.06 2.06 96
20260903030823 19 199 4.8 8.0 0.36 2.03 2.03 96
20260903030319 19 244 3.2 6.4 0.61 1.98 1.98 96
20260903025814 19 233 3.2 11.3 0.66 1.96 1.96 96
20260903025310 19 231 3.2 6.4 0.66 1.91 1.91 96
20260903024804 18 49 0.0 8.0 0.53 1.83 1.83 96
20260903024304 18 154 0.0 14.5 0.66 1.78 1.78 96
20260903023759 18 76 3.2 9.7 0.66 1.75 1.75 96
20260903023254 18 42 3.2 14.5 0.61 1.68 1.68 96
20260903022749 18 152 4.8 11.3 0.53 1.63 1.63 96
20260903022248 17 240 3.2 8.0 0.36 1.55 1.55 96
20260903021747 17 143 3.2 8.0 0.36 1.52 1.52 96
20260903021243 17 224 8.0 12.9 0.36 1.50 1.50 96
20260903020743 17 29 0.0 6.4 1.85 1.47 1.47 96
20260903020237 18 248 12.9 25.7 4.37 1.32 1.32 96